Weather in Priirtyshskiy

Russia / Tyumen Oblast     58°10′06″N   68°20′57″E
В апреле 2022 года жителям России запретили посещать сайт meteo.paraplan.net по решению Генеральной прокуратуры. Аудитория сайта уменьшилась в 10 раз. Владельцы сайта не видят смысла в поддержке погодного сервера в таких условиях. Сайт будет закрыт в октябре.
temp.,
°C
wind,
m/s
gust,
m/s
humid.,
%
clouds,
%
prec.,
mm/h
press.,
hPa
HPBL,
m
4 october, tue
tue423:00+8ssw61453100 0.2 1026552
02:00+9sw61351100 0.0 1025486
05:00+8sw51164100 0.0 1026324
08:00+9sw41087100 0.8 1026381
11:00+10wsw4985100 1.0 1027411
14:00+14w4664100 0.2 1028707
17:00+13w2269100 0.2 102915
20:00+10wnw337897 0.0 103024
5 october, wed
wed523:00+9w338384 0.0 103033
02:00+8w348435 0.0 103057
05:00+6wsw35825 0.0 103179
08:00+7wsw3975100 0.0 1031194
11:00+13wsw465359 0.0 1030459
14:00+16wsw454699 0.0 1030906
17:00+13sw3543100 0.0 102984
20:00+10sw3546100 0.0 102979
6 october, thu
thu623:00+8sw226291 0.0 102830
02:00+7wsw2273100 0.0 102821
05:00+6sw2276100 0.0 102819
08:00+7ssw2362100 0.0 102791
11:00+11s2348100 0.0 1026311
14:00+13s4545100 0.0 1025619
17:00+11s364791 0.0 1024125
20:00+10s4947100 0.0 1023219
7 october, fri
fri723:00+9s41047100 0.0 1021254
02:00+8s4947100 0.0 1019188
05:00+6s3650100 0.0 101792
08:00+8s4943100 0.0 1016252
11:00+11ssw51037100 0.0 1015474
14:00+12sw5749100 0.0 1014705
17:00+11s51059100 0.0 1012604
20:00+10sw3767100 0.0 1012284
8 october, sat
sat823:00+8ssw367894 0.0 1011161
02:00+7ssw358891 0.0 1010126
05:00+7ssw248784 0.0 1009127
08:00+8s238558 0.1 100894
11:00+10wsw237398 0.1 1007535
14:00+11wsw345277 0.1 10061490
17:00+9nw365891 0.1 1006281
20:00+6wnw236948 0.0 100734